• In Belarus
  • List of Countries
  • For 7 days
  • Water Temperature
  • Satellite Maps
  • Weather Map
  • Weather Widgets
  • user-avatar
    Login

    Hourly Weather Perth

    Today, 22 June, Friday

    Time Temperature Precipitation Wind Pressure Humidity
    00:00 +14°C° 0 mm 1 mps 769 mmHg 88%
    01:00 +14°C° 0 mm 1 mps 769 mmHg 88%
    02:00 +13°C° 0 mm 1 mps 769 mmHg 88%
    03:00 +13°C° 0 mm 2 mps 769 mmHg 88%
    04:00 +13°C° 0 mm 2 mps 769 mmHg 88%
    05:00 +13°C° 0 mm 2 mps 769 mmHg 89%
    06:00 +13°C° 0 mm 2 mps 769 mmHg 88%
    07:00 +13°C° 0 mm 2 mps 770 mmHg 88%
    08:00 +13°C° 0 mm 2 mps 770 mmHg 88%
    09:00 +15°C° 0 mm 2 mps 770 mmHg 80%
    10:00 +17°C° 0 mm 2 mps 770 mmHg 72%
    11:00 +19°C° 0 mm 2 mps 770 mmHg 64%
    12:00 +21°C° 0 mm 1 mps 770 mmHg 60%
    13:00 +22°C° 0 mm 1 mps 769 mmHg 56%
    14:00 +23°C° 0 mm 1 mps 769 mmHg 52%
    15:00 +22°C° 0 mm 1 mps 769 mmHg 57%
    16:00 +21°C° 0 mm 1 mps 769 mmHg 61%
    17:00 +19°C° 0 mm 2 mps 769 mmHg 65%
    18:00 +18°C° 0 mm 2 mps 769 mmHg 70%
    19:00 +17°C° 0 mm 2 mps 770 mmHg 74%
    20:00 +16°C° 0 mm 2 mps 770 mmHg 78%
    21:00 +15°C° 0 mm 2 mps 770 mmHg 80%
    22:00 +15°C° 0 mm 2 mps 770 mmHg 81%
    23:00 +14°C° 0 mm 2 mps 770 mmHg 83%

    Tomorrow, 23 June, Saturday

    Time Temperature Precipitation Wind Pressure Humidity
    00:00 +14°C° 0 mm 2 mps 770 mmHg 83%
    01:00 +13°C° 0 mm 3 mps 770 mmHg 82%
    02:00 +12°C° 0 mm 3 mps 770 mmHg 82%
    03:00 +12°C° 0 mm 3 mps 770 mmHg 83%
    04:00 +12°C° 0 mm 3 mps 770 mmHg 83%
    05:00 +12°C° 0 mm 3 mps 770 mmHg 83%
    06:00 +12°C° 0 mm 3 mps 770 mmHg 83%
    07:00 +12°C° 0 mm 3 mps 771 mmHg 83%
    08:00 +12°C° 0 mm 3 mps 771 mmHg 82%
    09:00 +14°C° 0 mm 3 mps 771 mmHg 74%
    10:00 +17°C° 0 mm 3 mps 771 mmHg 66%
    11:00 +19°C° 0 mm 3 mps 771 mmHg 58%
    12:00 +20°C° 0 mm 2 mps 770 mmHg 54%
    13:00 +21°C° 0 mm 2 mps 770 mmHg 50%
    14:00 +23°C° 0 mm 1 mps 769 mmHg 45%
    15:00 +22°C° 0 mm 1 mps 769 mmHg 49%
    16:00 +21°C° 0 mm 1 mps 770 mmHg 53%
    17:00 +20°C° 0 mm 1 mps 770 mmHg 57%
    18:00 +18°C° 0 mm 2 mps 770 mmHg 60%
    19:00 +17°C° 0 mm 2 mps 770 mmHg 63%
    20:00 +16°C° 0 mm 2 mps 771 mmHg 66%
    21:00 +14°C° 0 mm 3 mps 771 mmHg 67%
    22:00 +14°C° 0 mm 3 mps 771 mmHg 68%
    23:00 +14°C° 0 mm 3 mps 771 mmHg 69%

    Day after tomorrow, 24 June, Sunday

    Time Temperature Precipitation Wind Pressure Humidity
    00:00 +13°C° 0 mm 3 mps 771 mmHg 70%
    01:00 +13°C° 0 mm 3 mps 771 mmHg 71%
    02:00 +13°C° 0 mm 3 mps 771 mmHg 72%
    03:00 +13°C° 0 mm 3 mps 770 mmHg 74%
    04:00 +12°C° 0 mm 3 mps 770 mmHg 75%
    05:00 +12°C° 0 mm 3 mps 770 mmHg 77%
    06:00 +12°C° 0 mm 3 mps 770 mmHg 77%
    07:00 +12°C° 0 mm 3 mps 771 mmHg 77%
    08:00 +12°C° 0 mm 3 mps 771 mmHg 77%
    09:00 +14°C° 0 mm 3 mps 771 mmHg 68%
    10:00 +17°C° 0 mm 3 mps 771 mmHg 60%
    11:00 +20°C° 0 mm 3 mps 771 mmHg 51%
    12:00 +20°C° 0 mm 3 mps 770 mmHg 48%
    13:00 +21°C° 0 mm 3 mps 770 mmHg 44%
    14:00 +23°C° 0 mm 2 mps 769 mmHg 41%
    15:00 +21°C° 0 mm 2 mps 769 mmHg 45%
    16:00 +20°C° 0 mm 2 mps 769 mmHg 49%
    17:00 +20°C° 0 mm 1 mps 769 mmHg 53%
    18:00 +19°C° 0 mm 1 mps 770 mmHg 56%
    19:00 +17°C° 0 mm 2 mps 770 mmHg 58%
    20:00 +16°C° 0 mm 2 mps 770 mmHg 61%
    21:00 +15°C° 0 mm 2 mps 770 mmHg 62%
    22:00 +14°C° 0 mm 3 mps 770 mmHg 62%
    23:00 +13°C° 0 mm 3 mps 770 mmHg 62%

    25 June, Monday

    Time Temperature Precipitation Wind Pressure Humidity
    00:00 +13°C° 0 mm 3 mps 770 mmHg 63%
    01:00 +13°C° 0 mm 3 mps 770 mmHg 64%
    02:00 +13°C° 0 mm 4 mps 769 mmHg 64%
    03:00 +12°C° 0 mm 4 mps 769 mmHg 65%
    04:00 +12°C° 0 mm 4 mps 769 mmHg 66%
    05:00 +12°C° 0 mm 4 mps 769 mmHg 67%
    06:00 +12°C° 0 mm 4 mps 769 mmHg 66%
    07:00 +12°C° 0 mm 4 mps 769 mmHg 65%
    08:00 +12°C° 0 mm 5 mps 770 mmHg 65%
    09:00 +14°C° 0 mm 5 mps 769 mmHg 60%
    10:00 +16°C° 0 mm 5 mps 769 mmHg 54%
    11:00 +19°C° 0 mm 5 mps 769 mmHg 49%
    12:00 +20°C° 0 mm 5 mps 769 mmHg 47%
    13:00 +20°C° 0 mm 4 mps 768 mmHg 45%
    14:00 +21°C° 0 mm 4 mps 767 mmHg 43%
    15:00 +20°C° 0 mm 3 mps 767 mmHg 46%
    16:00 +19°C° 0 mm 3 mps 767 mmHg 50%
    17:00 +18°C° 0 mm 2 mps 767 mmHg 53%
    18:00 +17°C° 0 mm 2 mps 767 mmHg 56%
    19:00 +16°C° 0 mm 2 mps 768 mmHg 59%
    20:00 +15°C° 0 mm 2 mps 768 mmHg 61%
    21:00 +15°C° 0 mm 2 mps 768 mmHg 61%
    22:00 +13°C° 0 mm 3 mps 768 mmHg 60%
    23:00 +13°C° 0 mm 3 mps 768 mmHg 59%

    26 June, Tuesday

    Time Temperature Precipitation Wind Pressure Humidity
    00:00 +13°C° 0 mm 3 mps 767 mmHg 58%
    01:00 +13°C° 0 mm 3 mps 767 mmHg 56%
    02:00 +13°C° 0 mm 3 mps 767 mmHg 54%
    03:00 +13°C° 0 mm 4 mps 766 mmHg 53%
    04:00 +13°C° 0 mm 4 mps 766 mmHg 52%
    05:00 +13°C° 0 mm 4 mps 766 mmHg 51%
    06:00 +13°C° 0 mm 4 mps 766 mmHg 51%
    07:00 +13°C° 0 mm 4 mps 767 mmHg 51%
    08:00 +13°C° 0 mm 5 mps 767 mmHg 51%
    09:00 +14°C° 0 mm 5 mps 767 mmHg 48%
    10:00 +16°C° 0 mm 5 mps 767 mmHg 44%
    11:00 +19°C° 0 mm 6 mps 766 mmHg 41%
    12:00 +20°C° 0 mm 5 mps 766 mmHg 40%
    13:00 +20°C° 0 mm 5 mps 765 mmHg 39%
    14:00 +21°C° 0 mm 5 mps 764 mmHg 38%
    15:00 +20°C° 0 mm 4 mps 764 mmHg 43%
    16:00 +19°C° 0 mm 4 mps 764 mmHg 47%
    17:00 +18°C° 0 mm 3 mps 764 mmHg 52%
    18:00 +18°C° 0 mm 3 mps 764 mmHg 52%
    19:00 +18°C° 0 mm 4 mps 764 mmHg 53%
    20:00 +17°C° 0 mm 4 mps 764 mmHg 53%
    21:00 +17°C° 0 mm 4 mps 764 mmHg 55%
    22:00 +15°C° 0 mm 4 mps 764 mmHg 56%
    23:00 +14°C° 0 mm 5 mps 764 mmHg 57%

    27 June, Wednesday

    Time Temperature Precipitation Wind Pressure Humidity
    00:00 +14°C° 0 mm 5 mps 763 mmHg 54%
    01:00 +15°C° 0 mm 5 mps 763 mmHg 52%
    02:00 +15°C° 0 mm 6 mps 762 mmHg 49%
    03:00 +15°C° 0 mm 6 mps 762 mmHg 48%
    04:00 +15°C° 0 mm 6 mps 762 mmHg 48%
    05:00 +14°C° 0 mm 6 mps 762 mmHg 47%
    06:00 +14°C° 0 mm 6 mps 762 mmHg 47%
    07:00 +14°C° 0 mm 6 mps 762 mmHg 47%
    08:00 +14°C° 0 mm 7 mps 763 mmHg 48%
    09:00 +16°C° 0.1 mm 7 mps 762 mmHg 47%
    10:00 +18°C° 0.1 mm 7 mps 762 mmHg 46%
    11:00 +20°C° 0.1 mm 8 mps 762 mmHg 46%
    12:00 +21°C° 0.2 mm 8 mps 761 mmHg 50%
    13:00 +21°C° 0.2 mm 8 mps 761 mmHg 53%
    14:00 +22°C° 0.2 mm 8 mps 760 mmHg 57%
    15:00 +21°C° 0.2 mm 8 mps 760 mmHg 61%
    16:00 +21°C° 0.2 mm 7 mps 760 mmHg 64%
    17:00 +21°C° 0.2 mm 7 mps 760 mmHg 68%
    18:00 +20°C° 2.2 mm 7 mps 760 mmHg 73%
    19:00 +20°C° 2.2 mm 7 mps 760 mmHg 78%
    20:00 +18°C° 2.2 mm 7 mps 760 mmHg 83%
    21:00 +18°C° 2.1 mm 8 mps 760 mmHg 85%
    22:00 +18°C° 2.1 mm 8 mps 760 mmHg 87%
    23:00 +18°C° 2.1 mm 8 mps 760 mmHg 88%
    Show more